User: anonymous   Login
Location: Antichan
(42.9728°N, 0.6667°E)
Time: 00:58:17
(UTC+00:00)
Language:

Cosmos 1869 Rocket - Orbit

View from above orbital plane
View from above orbital plane
View from above satellite
View from above satellite

Ground track
Ground track

The orbit data is extracted from the following two-line orbital elements,

1 18215U 87062B   20293.38524285  .00000087  00000-0  76404-5 0  9994
2 18215  82.5148 219.8869 0021971  66.4736  71.0969 14.83230655796834
Epoch (UTC): 19 October 2020 09:14:44
Eccentricity: 0.0021971
inclination: 82.5148°
perigee height: 604 km
apogee height: 634 km
right ascension of ascending node: 219.8869°
argument of perigee: 66.4736°
revolutions per day: 14.83230655
mean anomaly at epoch: 71.0969°
orbit number at epoch: 79683

The dashed part of the orbit path shows where the satellite is in the earth's shadow,  

DLR